Regional Weather Roundup
Issued by NWS

Home | Current Version | Previous Version | Graphics & Text | Print | Product List | Glossary On
Versions: 1 2 3 4 5 6 7 8 9 10 11 12 13 14 15 16 17 18 19 20 21 22 23 24 25 26 27 28 29 30 31 32 33 34 35 36 37 38 39 40 41 42 43 44 45 46 47 48 49 50
000
ASUS43 KMKX 221711
RWRWI

WISCONSIN REGIONAL WEATHER ROUNDUP
NATIONAL WEATHER SERVICE MILWAUKEE/SULLIVAN WI
1200 PM CDT THU JUN 22 2017

NOTE: "FAIR" INDICATES FEW OR NO CLOUDS BELOW 12,000 FEET WITH NO
SIGNIFICANT WEATHER AND/OR OBSTRUCTIONS TO VISIBILITY.

WIZ001-002-006>008-014>016-023>028-221800-
NORTHWEST WISCONSIN

CITY           SKY/WX    TMP DP  RH WIND       PRES   REMARKS
SUPERIOR ARPT  NOT AVBL
ASHLAND        CLOUDY    72  54  53 NW5       29.70R
HAYWARD        CLOUDY    67  58  72 VRB3      29.75R
SIREN          LGT RAIN  65  60  84 CALM      29.76R
CUMBERLAND     RAIN      63  61  94 SW6       29.78R
RICE LAKE      RAIN      65  64  93 W3        29.79R
CHETEK         RAIN      66  65  99 CALM      29.79R
LADYSMITH      LGT RAIN  67  65  93 W5        29.78R
EAU CLAIRE     LGT RAIN  69  68  96 SW3       29.75R FOG
MENOMONIE      LGT RAIN  68  67  98 SW3       29.77R
NEW RICHMOND   RAIN      66  65  96 S3        29.78R
OSCEOLA        HVY RAIN  66  66 100 SE7       29.76F
$$

WIZ003>005-009-010-017-018-221800-
NORTH CENTRAL WISCONSIN

CITY           SKY/WX    TMP DP  RH WIND       PRES   REMARKS
MANITOWISH WTR CLOUDY    66  65  95 W7        29.72R
ARBOR VITAE    LGT RAIN  67  63  87 SW6       29.73R
WOODRUFF       LGT RAIN  67  63  87 SW6       29.73R
RHINELANDER    CLOUDY    71  66  84 W6        29.74R
EAGLE RIVER    LGT RAIN  67  63  85 SW7       29.71R
LAND O LAKES   LGT RAIN  67  62  82 W3        29.72S
PHILLIPS       RAIN      65  64  99 W5        29.76R
TOMAHAWK       NOT AVBL
MEDFORD        CLOUDY    70  66  87 W8        29.74R
MERRILL        CLOUDY    71  68  89 W7        29.73R
$$

WIZ029-030-035-036-043>047-221800-
CENTRAL WISCONSIN

CITY           SKY/WX    TMP DP  RH WIND       PRES   REMARKS
WAUSAU         CLOUDY    69  68  96 SW8       29.72S
MOSINEE        CLOUDY    70  68  94 S6        29.74S
MARSHFIELD     RAIN      69  66  90 W6        29.74R FOG
STEVENS POINT  CLOUDY    68  68 100 S9        29.74F
WAUPACA        CLOUDY    77  69  75 SW3       29.74F
WAUTOMA        CLOUDY    74  66  76 W7        29.75S
WISC RAPIDS    CLOUDY    72  68  87 S6        29.76R
CAMP DOUGLAS   PTSUNNY   73  68  83 W6        29.75R
$$

WIZ011>013-019>022-031-037>040-048>050-221800-
NORTHEAST WISCONSIN

CITY           SKY/WX    TMP DP  RH WIND       PRES   REMARKS
ANTIGO         CLOUDY    69  68  95 SW9       29.73S
SHAWANO        RAIN      71  68  91 SW5       29.72F
OCONTO         CLOUDY    70  67  90 W6        29.72S
STURGEON BAY     N/A     74  68  81 W12         N/A
GREEN BAY      CLOUDY    77  70  79 SW7       29.73S
MANITOWOC      CLOUDY    79  67  66 SW14G20   29.75S HX  81
APPLETON       PTSUNNY   75  64  69 SW12      29.74R
CLINTONVILLE   LGT RAIN  70  66  88 W6        29.72F
OSHKOSH        PTSUNNY   77  66  68 SW8       29.74S
$$

WIZ032>034-041-042-053>061-221800-
SOUTHWEST WISCONSIN

CITY           SKY/WX    TMP DP  RH WIND       PRES   REMARKS
LA CROSSE      RAIN      71  66  84 SW15G25   29.78R
SPARTA         LGT RAIN  71  66  85 W7        29.79R
VIROQUA        CLOUDY    69  66  89 W13G18    29.80R
BOSCOBEL       CLOUDY    71  66  84 SW10      29.74F
PRAIRIE DU CHI LGT RAIN  68  67  95 SW5       29.75R
PLATTEVILLE    CLOUDY    79  67  66 S20       29.77F HX  81
$$

WIZ056-057-062-063-064-067-068-221800-
SOUTH CENTRAL WISCONSIN

CITY           SKY/WX    TMP DP  RH WIND       PRES   REMARKS
REEDSBURG      DRIZZLE   69  67  92 NW3       29.71F
BARABOO/DELLS  LGT RAIN  70  66  86 CALM      29.72F
LONE ROCK      CLOUDY    72  67  84 VRB5      29.72F
MINERAL POINT  CLOUDY    79  70  73 S12       29.75F HX  81
MADISON        PTSUNNY   76  68  76 SW8G17    29.75F
MIDDLETON      PTSUNNY   77  68  73 SW8       29.75F
WATERTOWN      PTSUNNY   74  71  89 SW8       29.76F
MONROE         CLOUDY    79  64  61 SW20      29.79F HX  81
JANESVILLE     PTSUNNY   79  66  65 S13       29.80S HX  81
$$

WIZ051-052-058>065-066-070>072-221800-
SOUTHEAST WISCONSIN

CITY           SKY/WX    TMP DP  RH WIND       PRES   REMARKS
MILWAUKEE      CLOUDY    81  67  62 SW13      29.77F HX  83
WAUKESHA       MOSUNNY   75  64  69 SW6       29.80S
MILWAUKEE/TIMM MOSUNNY   77  64  65 W8        29.79R
RACINE           N/A     82  66  58 SW16G24   29.80  HX  84
KENOSHA        PTSUNNY   81  67  62 SW16G25   29.80S HX  83
FOND DU LAC    CLOUDY    77  65  66 SW6       29.75F
SHEBOYGAN      CLOUDY    80  71  74 SW13      29.76R HX  84
WEST BEND      CLOUDY    73  66  78 SW10      29.77F
JUNEAU         CLOUDY    72  67  84 SW3       29.78F
$$

LSZ147-162-221800-
LAKE SUPERIOR

STATION/POSITION TIME  TEMP    WIND        PRES    WAVE
                       AIR SEA DIR/SP/G            HT/PER
                 (UTC) (F)     (DEG/KT/KT) (MB)    (FT/S)
W MID LAKE BUOY  1650   45 39  240/ 10/ 12 1004.7R
DEVILS ISLAND    1700   59     230/  8/ 11 1005.0R
SAXON HARBOR     1640   71     300/  1/  3 1005.1R
$$

LMZ867-665-643>646-221800-
LAKE MICHIGAN

STATION/POSITION TIME  TEMP    WIND        PRES    WAVE
                       AIR SEA DIR/SP/G            HT/PER
                 (UTC) (F)     (DEG/KT/KT) (MB)    (FT/S)
CHAMBERS ISLAND  1640   70     200/  8/ 13 1005.8R
N MID LAKE BUOY  1650   58 54  200/ 10/ 12 1005.9F   3/ 5
NORTHPORT PIER   1640   73     230/  7/ 11 1005.4F
KEWAUNEE LAKESHO 1648   58     180/ 12/ 15 1006.4F
SHEBOYGAN LAKESH 1700   71     180/ 15/ 16 1007.2R
PORT WASHINGTON  1630   69     190/  4/ 10 1009.1S
ATWATER BUOY     1639   71 55  260/  4/  6 1008.5R
MILWAUKEE LAKESH 1650   79     270/  8/ 12   N/A
S MID LAKE BUOY  1550   67 61  190/ 19/ 23 1008.4F   2/ 4
KENOSHA   LAKESH 1700   81     220/ 12/ 16 1008.8
$$

TC  - TEMPERATURE IN CELSIUS
VSB - VISIBILITY IN STATUTE MILES
WCI - WIND CHILL INDEX
HX  - HEAT INDEX





USA.gov is the U.S. government's official web portal to all federal, state and local government web resources and services.